Location: St. Louis
(38.6270°N, 90.1994°W)
Time: 09:37:48
(UTC-06:00)

Vanguard 2 Rocket - Pass Details

Date: 01 December 2021
Orbit: 553 x 3325 km, 32.9° (Epoch: 23 January)

Event Time Altitude Azimuth Distance (km) Brightness Sun altitude
Rises 00:05:44 0° 278° (W) 5,341 - -72.9°
Reaches altitude 10° 00:08:58 10° 271° (W) 4,671 - -72.7°
Maximum altitude 00:22:03 44° 206° (SSW) 3,637 - -71.9°
Drops below altitude 10° 00:40:04 10° 143° (SE) 6,277 - -70.1°
Exits shadow 00:41:29 - 141° (SE) 6,541 11.1 -69.9°
Sets 00:45:22 0° 137° (SE) 7,265 11.5 -69.4°
